• In Belarus
  • List of Countries
  • For 7 days
  • Water Temperature
  • Satellite Maps
  • Weather Map
  • Weather Widgets
  • user-avatar
    Login

    Hourly Weather Ghazni

    Today, 25 February, Sunday

    Time Temperature Precipitation Wind Pressure Humidity
    00:00 +2°C° 0 mm 2 mps 583 mmHg 74%
    01:00 +2°C° 0 mm 2 mps 583 mmHg 74%
    02:00 +1°C° 0 mm 2 mps 583 mmHg 75%
    03:00 +1°C° 0 mm 2 mps 583 mmHg 74%
    04:00 +1°C° 0 mm 2 mps 583 mmHg 74%
    05:00 +1°C° 0 mm 2 mps 583 mmHg 74%
    06:00 +1°C° 0 mm 2 mps 584 mmHg 72%
    07:00 +1°C° 0 mm 2 mps 584 mmHg 70%
    08:00 +2°C° 0 mm 2 mps 585 mmHg 67%
    09:00 +4°C° 0 mm 1 mps 586 mmHg 64%
    10:00 +6°C° 0 mm 1 mps 586 mmHg 61%
    11:00 +7°C° 0 mm 1 mps 587 mmHg 57%
    12:00 +8°C° 0 mm 1 mps 587 mmHg 57%
    13:00 +8°C° 0 mm 2 mps 587 mmHg 56%
    14:00 +9°C° 0 mm 2 mps 587 mmHg 55%
    15:00 +9°C° 0 mm 2 mps 587 mmHg 54%
    16:00 +9°C° 0 mm 2 mps 586 mmHg 53%
    17:00 +9°C° 0 mm 2 mps 586 mmHg 52%
    18:00 +9°C° 0 mm 2 mps 586 mmHg 55%
    19:00 +8°C° 0 mm 2 mps 586 mmHg 58%
    20:00 +7°C° 0 mm 2 mps 586 mmHg 61%
    21:00 +7°C° 0.2 mm 2 mps 586 mmHg 64%
    22:00 +7°C° 0.2 mm 2 mps 586 mmHg 66%
    23:00 +7°C° 0.2 mm 2 mps 586 mmHg 68%

    Tomorrow, 26 February, Monday

    Time Temperature Precipitation Wind Pressure Humidity
    00:00 +6°C° 0.5 mm 2 mps 586 mmHg 72%
    01:00 +6°C° 0.5 mm 2 mps 586 mmHg 75%
    02:00 +6°C° 0.5 mm 2 mps 585 mmHg 79%
    03:00 +6°C° 0.7 mm 2 mps 585 mmHg 81%
    04:00 +5°C° 0.7 mm 2 mps 585 mmHg 84%
    05:00 +5°C° 0.7 mm 2 mps 585 mmHg 87%
    06:00 +6°C° 0.2 mm 2 mps 585 mmHg 88%
    07:00 +6°C° 0.2 mm 2 mps 585 mmHg 89%
    08:00 +6°C° 0.2 mm 2 mps 586 mmHg 89%
    09:00 +7°C° 0.1 mm 3 mps 586 mmHg 84%
    10:00 +7°C° 0.1 mm 4 mps 586 mmHg 79%
    11:00 +8°C° 0.1 mm 4 mps 586 mmHg 74%
    12:00 +8°C° 0.1 mm 5 mps 586 mmHg 71%
    13:00 +9°C° 0.1 mm 5 mps 586 mmHg 69%
    14:00 +9°C° 0.1 mm 6 mps 585 mmHg 67%
    15:00 +9°C° 0.2 mm 6 mps 585 mmHg 65%
    16:00 +9°C° 0.2 mm 6 mps 585 mmHg 64%
    17:00 +9°C° 0.2 mm 6 mps 585 mmHg 63%
    18:00 +8°C° 0.7 mm 6 mps 585 mmHg 69%
    19:00 +7°C° 0.7 mm 6 mps 584 mmHg 75%
    20:00 +5°C° 0.7 mm 6 mps 584 mmHg 81%
    21:00 +5°C° 0.2 mm 5 mps 584 mmHg 83%
    22:00 +5°C° 0.2 mm 5 mps 584 mmHg 85%
    23:00 +5°C° 0.2 mm 4 mps 584 mmHg 87%

    Day after tomorrow, 27 February, Tuesday

    Time Temperature Precipitation Wind Pressure Humidity
    00:00 +4°C° 0 mm 3 mps 584 mmHg 88%
    01:00 +4°C° 0 mm 3 mps 584 mmHg 89%
    02:00 +4°C° 0 mm 2 mps 583 mmHg 91%
    03:00 +4°C° 0 mm 2 mps 583 mmHg 89%
    04:00 +3°C° 0 mm 2 mps 583 mmHg 88%
    05:00 +4°C° 0 mm 1 mps 582 mmHg 87%
    06:00 +4°C° 0 mm 1 mps 583 mmHg 85%
    07:00 +4°C° 0 mm 1 mps 583 mmHg 83%
    08:00 +4°C° 0 mm 1 mps 584 mmHg 81%
    09:00 +6°C° 0 mm 1 mps 584 mmHg 78%
    10:00 +7°C° 0 mm 1 mps 585 mmHg 75%
    11:00 +8°C° 0 mm 1 mps 586 mmHg 71%
    12:00 +8°C° 0 mm 2 mps 586 mmHg 68%
    13:00 +9°C° 0 mm 2 mps 586 mmHg 64%
    14:00 +10°C° 0 mm 2 mps 586 mmHg 60%
    15:00 +10°C° 0 mm 2 mps 586 mmHg 58%
    16:00 +10°C° 0 mm 2 mps 585 mmHg 55%
    17:00 +10°C° 0 mm 2 mps 585 mmHg 53%
    18:00 +9°C° 0 mm 2 mps 585 mmHg 56%
    19:00 +9°C° 0 mm 1 mps 585 mmHg 58%
    20:00 +8°C° 0 mm 1 mps 585 mmHg 61%
    21:00 +8°C° 0 mm 1 mps 585 mmHg 63%
    22:00 +7°C° 0 mm 1 mps 585 mmHg 65%
    23:00 +7°C° 0 mm 1 mps 585 mmHg 67%

    28 February, Wednesday

    Time Temperature Precipitation Wind Pressure Humidity
    00:00 +7°C° 0 mm 1 mps 585 mmHg 68%
    01:00 +6°C° 0 mm 1 mps 584 mmHg 69%
    02:00 +6°C° 0 mm 1 mps 584 mmHg 70%
    03:00 +6°C° 0 mm 1 mps 584 mmHg 70%
    04:00 +5°C° 0 mm 1 mps 583 mmHg 71%
    05:00 +5°C° 0 mm 1 mps 583 mmHg 72%
    06:00 +5°C° 0 mm 1 mps 584 mmHg 71%
    07:00 +5°C° 0 mm 1 mps 584 mmHg 70%
    08:00 +4°C° 0 mm 2 mps 584 mmHg 70%
    09:00 +7°C° 0 mm 1 mps 585 mmHg 68%
    10:00 +8°C° 0 mm 1 mps 585 mmHg 67%
    11:00 +9°C° 0 mm 1 mps 586 mmHg 66%
    12:00 +10°C° 0.1 mm 1 mps 586 mmHg 66%
    13:00 +10°C° 0.1 mm 1 mps 585 mmHg 65%
    14:00 +11°C° 0.1 mm 1 mps 585 mmHg 64%
    15:00 +11°C° 0.6 mm 1 mps 585 mmHg 66%
    16:00 +9°C° 0.6 mm 2 mps 584 mmHg 68%
    17:00 +9°C° 0.6 mm 2 mps 584 mmHg 70%
    18:00 +9°C° 0.7 mm 2 mps 584 mmHg 73%
    19:00 +8°C° 0.7 mm 2 mps 584 mmHg 76%
    20:00 +9°C° 0.7 mm 1 mps 584 mmHg 79%
    21:00 +9°C° 0.4 mm 1 mps 584 mmHg 80%
    22:00 +8°C° 0.4 mm 1 mps 584 mmHg 81%
    23:00 +8°C° 0.4 mm 1 mps 584 mmHg 82%

    1 March, Thursday

    Time Temperature Precipitation Wind Pressure Humidity
    00:00 +8°C° 0.4 mm 1 mps 584 mmHg 82%
    01:00 +7°C° 0.4 mm 2 mps 583 mmHg 82%
    02:00 +6°C° 0.4 mm 2 mps 583 mmHg 82%
    03:00 +6°C° 0.2 mm 2 mps 583 mmHg 83%
    04:00 +6°C° 0.2 mm 2 mps 582 mmHg 83%
    05:00 +7°C° 0.2 mm 1 mps 582 mmHg 83%
    06:00 +7°C° 0.1 mm 1 mps 582 mmHg 82%
    07:00 +7°C° 0.1 mm 1 mps 582 mmHg 82%
    08:00 +7°C° 0.1 mm 1 mps 583 mmHg 82%
    09:00 +7°C° 0.1 mm 1 mps 583 mmHg 79%
    10:00 +8°C° 0.1 mm 1 mps 583 mmHg 77%
    11:00 +9°C° 0.1 mm 1 mps 584 mmHg 75%
    12:00 +9°C° 0.3 mm 1 mps 583 mmHg 73%
    13:00 +10°C° 0.3 mm 1 mps 583 mmHg 71%
    14:00 +10°C° 0.3 mm 1 mps 582 mmHg 68%
    15:00 +9°C° 0.5 mm 2 mps 582 mmHg 66%
    16:00 +10°C° 0.5 mm 2 mps 582 mmHg 63%
    17:00 +10°C° 0.5 mm 2 mps 582 mmHg 60%
    18:00 +9°C° 0.2 mm 2 mps 582 mmHg 63%
    19:00 +8°C° 0.2 mm 2 mps 582 mmHg 65%
    20:00 +7°C° 0.2 mm 2 mps 582 mmHg 68%
    21:00 +7°C° 0.2 mm 2 mps 582 mmHg 69%
    22:00 +7°C° 0.2 mm 2 mps 582 mmHg 70%
    23:00 +6°C° 0.2 mm 2 mps 582 mmHg 72%

    2 March, Friday

    Time Temperature Precipitation Wind Pressure Humidity
    00:00 +6°C° 0 mm 2 mps 581 mmHg 73%
    01:00 +5°C° 0 mm 2 mps 581 mmHg 73%
    02:00 +6°C° 0 mm 1 mps 581 mmHg 74%
    03:00 +5°C° 0 mm 1 mps 580 mmHg 74%
    04:00 +5°C° 0 mm 1 mps 580 mmHg 74%
    05:00 +4°C° 0 mm 1 mps 580 mmHg 74%
    06:00 +4°C° 0 mm 1 mps 580 mmHg 73%
    07:00 +5°C° 0 mm 1 mps 580 mmHg 72%
    08:00 +5°C° 0 mm 1 mps 581 mmHg 71%
    09:00 +5°C° 0 mm 2 mps 581 mmHg 67%
    10:00 +6°C° 0 mm 2 mps 582 mmHg 63%
    11:00 +8°C° 0 mm 2 mps 583 mmHg 60%
    12:00 +9°C° 0 mm 3 mps 583 mmHg 55%
    13:00 +10°C° 0 mm 3 mps 583 mmHg 51%
    14:00 +10°C° 0 mm 3 mps 583 mmHg 46%
    15:00 +10°C° 0 mm 3 mps 583 mmHg 43%
    16:00 +10°C° 0 mm 3 mps 583 mmHg 40%
    17:00 +10°C° 0 mm 3 mps 582 mmHg 38%
    18:00 +9°C° 0 mm 3 mps 582 mmHg 41%
    19:00 +8°C° 0 mm 2 mps 582 mmHg 45%
    20:00 +7°C° 0 mm 2 mps 582 mmHg 48%
    21:00 +6°C° 0 mm 2 mps 582 mmHg 49%
    22:00 +5°C° 0 mm 2 mps 582 mmHg 51%
    23:00 +5°C° 0 mm 2 mps 582 mmHg 52%
    Show more